EST,Max TemperatureF,Mean TemperatureF,Min TemperatureF,Max Dew PointF,MeanDew PointF,Min DewpointF,Max Humidity, Mean Humidity, Min Humidity, Max Sea Level PressureIn, Mean Sea Level PressureIn, Min Sea Level PressureIn, Max VisibilityMiles, Mean VisibilityMiles, Min VisibilityMiles, Max Wind SpeedMPH, Mean Wind SpeedMPH, Max Gust SpeedMPH,PrecipitationIn, CloudCover, Events, WindDirDegrees
2012-12-1,65,55,45,46,42,39,82,63,44,30.34,30.27,30.23,10,10,10,12,2,17,0.00,2,,199
2012-12-2,69,60,51,52,47,42,80,64,47,30.24,30.19,30.13,10,10,10,13,4,30,0.05,5,Rain,205
2012-12-3,72,63,54,52,49,47,72,60,47,30.26,30.19,30.14,10,10,10,9,4,15,T,2,,204
2012-12-4,68,58,48,54,49,46,72,64,56,30.20,30.15,30.09,10,9,4,14,5,25,0.13,6,Rain,212
2012-12-5,56,47,38,45,38,28,96,69,41,30.32,30.26,30.21,10,8,1,9,3,17,0.21,3,Rain,15
2012-12-6,52,42,31,46,37,28,92,77,61,30.23,30.13,30.04,10,10,10,8,2,16,T,5,,69
2012-12-7,63,57,50,50,47,45,86,73,60,30.03,29.96,29.90,10,10,5,10,3,17,0.05,6,Rain,199
2012-12-8,63,58,53,55,53,50,100,86,72,30.02,29.95,29.90,10,4,0,12,3,16,0.90,8,Fog-Rain-Thunderstorm,239
2012-12-9,61,57,53,57,54,52,100,90,80,30.02,29.97,29.79,10,4,0,10,2,20,1.49,8,Fog-Rain,150
2012-12-10,61,48,34,55,47,32,100,86,72,29.91,29.74,29.62,10,6,1,16,6,24,1.12,8,Rain-Thunderstorm,287
2012-12-11,34,32,29,31,25,21,96,80,63,30.26,30.09,29.92,10,8,0,10,2,16,T,7,Rain,277
2012-12-12,42,33,24,26,23,21,88,70,51,30.41,30.35,30.27,10,9,0,8,2,14,0.00,0,Fog,48
2012-12-13,48,37,26,30,26,23,85,65,45,30.42,30.35,30.30,10,10,10,6,1,9,0.00,0,,50
2012-12-14,55,43,30,33,26,20,85,56,27,30.36,30.29,30.18,10,10,10,8,2,12,0.00,0,,189
2012-12-15,60,49,38,42,32,24,76,54,32,30.17,30.03,29.89,10,10,9,10,3,20,0.01,4,Rain,173
2012-12-16,59,56,53,51,49,46,83,72,61,29.90,29.81,29.73,10,10,10,12,5,21,T,6,Rain,200
2012-12-17,56,50,44,52,49,42,100,86,72,29.80,29.67,29.57,10,6,0,22,3,35,0.41,7,Fog-Rain,212
2012-12-18,46,43,39,43,38,29,92,79,65,29.92,29.78,29.64,10,10,5,16,6,26,0.09,6,Rain,244
2012-12-19,56,49,42,38,34,29,71,57,43,30.06,30.01,29.88,10,10,10,10,4,21,0.00,0,,177
2012-12-20,54,44,33,46,39,26,93,72,50,29.98,29.62,29.44,10,9,2,23,7,38,0.56,6,Rain,198
2012-12-21,33,30,26,27,23,19,92,78,63,30.12,29.80,29.67,10,4,0,21,12,36,0.14,8,Fog-Snow,255
2012-12-22,38,32,26,23,20,19,75,64,52,30.29,30.20,30.12,10,10,10,14,4,21,0.00,4,,236
2012-12-23,52,40,28,37,26,16,76,59,41,30.12,30.02,29.96,10,10,10,10,4,20,0.00,4,,210
2012-12-24,47,45,42,46,43,37,100,85,70,29.96,29.85,29.78,10,6,1,8,3,16,0.17,8,Rain,224
2012-12-25,45,39,33,43,35,30,100,93,85,30.12,30.04,29.96,9,4,1,10,4,22,0.02,8,Rain,1
2012-12-26,45,38,30,43,36,27,100,93,85,29.92,29.62,29.44,10,5,1,17,8,31,0.67,8,Rain-Snow,284
2012-12-27,30,29,28,27,24,22,92,84,75,30.18,30.08,29.89,10,10,8,15,4,25,T,8,,288
2012-12-28,40,34,28,34,28,24,89,74,59,30.15,29.99,29.79,10,8,0,7,2,10,0.17,7,Fog-Rain-Snow,72
2012-12-29,36,31,25,36,29,19,100,88,75,30.23,29.84,29.69,10,4,0,17,7,28,0.18,8,Fog-Rain-Snow,256
2012-12-30,35,29,23,21,19,17,81,69,56,30.48,30.40,30.25,10,10,9,17,4,26,T,4,,251
2012-12-31,38,31,24,30,23,19,88,71,54,30.38,30.25,30.13,10,10,10,9,4,15,0.02,4,Rain,218